GW1754 Weather Reports


time (UTC)temp
C
wind
direction
speed
KPH
gust
KPH
rain 1hr
cm
rain 24hr
cm
rain mn
cm
humidity
%
barometer
mb
20260502232922 11 89 4.8 11.3 0.00 0.13 0.00 100 1010.4
20260502231923 11 70 6.4 12.9 0.00 0.13 0.00 100 1010.4
20260502230922 11 115 4.8 8.0 0.00 0.13 0.13 100 1010.5
20260502225924 11 123 4.8 6.4 0.00 0.13 0.13 100 1010.5
20260502224922 11 114 4.8 9.7 0.00 0.13 0.13 100 1010.5
20260502223922 11 127 4.8 11.3 0.00 0.13 0.13 100 1010.5
20260502222922 11 125 8.0 14.5 0.00 0.13 0.13 100 1010.6
20260502221922 11 127 6.4 11.3 0.00 0.13 0.13 100 1010.6
20260502220922 11 128 8.0 14.5 0.00 0.13 0.13 100 1010.7
20260502215922 11 130 8.0 16.1 0.00 0.13 0.13 100 1010.7
20260502214922 11 129 8.0 14.5 0.00 0.13 0.13 100 1010.7
20260502213922 11 133 8.0 12.9 0.00 0.13 0.13 100 1010.6
20260502212922 11 132 9.7 16.1 0.00 0.13 0.13 100 1010.7
20260502211922 11 129 9.7 14.5 0.00 0.13 0.13 100 1010.7
20260502210922 11 131 9.7 14.5 0.00 0.13 0.13 100 1010.7
20260502205922 11 130 9.7 17.7 0.00 0.13 0.13 100 1010.7
20260502204922 11 128 9.7 19.3 0.00 0.13 0.13 100 1010.7
20260502203922 11 130 9.7 16.1 0.00 0.13 0.13 100 1010.7
20260502202922 11 135 9.7 16.1 0.00 0.13 0.13 100 1010.7
20260502201922 11 129 9.7 17.7 0.00 0.13 0.13 100 1010.6
20260502200922 11 134 8.0 14.5 0.00 0.13 0.13 100 1010.6
20260502195922 11 129 9.7 16.1 0.00 0.13 0.13 100 1010.6
20260502194922 11 145 9.7 16.1 0.00 0.13 0.13 100 1010.7
20260502193922 11 133 9.7 17.7 0.00 0.13 0.13 100 1010.6
20260502192922 11 133 9.7 16.1 0.00 0.13 0.13 100 1010.7
20260502191921 11 131 8.0 16.1 0.00 0.13 0.13 100 1010.7
20260502190921 11 135 11.3 20.9 0.00 0.13 0.13 100 1010.7
20260502185921 11 137 9.7 19.3 0.03 0.13 0.13 100 1010.7
20260502184921 11 137 8.0 17.7 0.03 0.13 0.13 100 1010.8
20260502183921 11 133 9.7 14.5 0.03 0.13 0.13 100 1010.7
20260502182921 11 134 6.4 12.9 0.03 0.13 0.13 100 1010.7
20260502181921 11 134 6.4 14.5 0.03 0.13 0.13 100 1010.8
20260502180921 11 134 6.4 11.3 0.03 0.13 0.13 100 1010.8
20260502163921 11 78 8.0 17.7 0.03 0.08 0.08 100 1011.2
20260502162921 11 80 8.0 12.9 0.03 0.08 0.08 100 1011.2
20260502161921 11 63 8.0 12.9 0.03 0.08 0.08 100 1011.2
20260502160921 11 65 8.0 17.7 0.03 0.08 0.08 100 1011.3
20260502151924 11 80 6.4 11.3 0.03 0.05 0.05 100 1011.9
20260502150924 11 125 6.4 12.9 0.03 0.05 0.05 100 1012.0
20260502122924 11 149 17.7 27.4 0.00 0.00 0.00 100 1013.6
20260502121924 11 152 17.7 27.4 0.00 0.00 0.00 100 1013.6
20260502120924 11 150 17.7 25.7 0.00 0.00 0.00 100 1013.7
20260502115924 11 148 14.5 22.5 0.00 0.00 0.00 100 1013.8
20260502114924 11 149 16.1 22.5 0.00 0.00 0.00 100 1013.9
20260502113923 11 151 17.7 24.1 0.00 0.00 0.00 100 1013.9
20260502112923 11 150 17.7 24.1 0.00 0.00 0.00 100 1014.0
20260502111923 11 152 16.1 22.5 0.00 0.00 0.00 100 1013.9
20260502110923 11 153 16.1 20.9 0.00 0.00 0.00 100 1014.0
20260502105923 11 154 16.1 20.9 0.00 0.00 0.00 100 1014.2
20260502104923 11 151 17.7 22.5 0.00 0.00 0.00 100 1014.2
20260502103923 11 152 19.3 25.7 0.00 0.00 0.00 100 1014.1
20260502102923 11 151 17.7 24.1 0.00 0.00 0.00 100 1014.1
20260502101923 11 152 16.1 24.1 0.00 0.00 0.00 100 1014.1
20260502100923 11 149 16.1 27.4 0.00 0.00 0.00 100 1014.1
20260502090923 11 145 12.9 19.3 0.00 0.00 0.00 100 1014.5
20260502070922 11 150 12.9 17.7 0.00 0.00 0.00 100 1014.7
20260502065922 11 153 14.5 19.3 0.00 0.00 0.00 100 1014.8
20260502064922 11 147 11.3 17.7 0.00 0.00 0.00 100 1014.7
20260502063922 11 151 16.1 20.9 0.00 0.00 0.00 100 1014.8
20260502062922 11 155 14.5 22.5 0.00 0.00 0.00 100 1014.8
20260502061922 11 153 17.7 27.4 0.00 0.00 0.00 100 1014.8
20260502060922 11 156 16.1 24.1 0.00 0.00 0.00 100 1014.8
20260502055922 11 152 17.7 24.1 0.00 0.00 0.00 100 1014.7
20260502054922 11 152 16.1 20.9 0.00 0.00 0.00 100 1014.7
20260502053922 11 151 12.9 19.3 0.00 0.00 0.00 100 1014.6
20260502052922 11 155 14.5 20.9 0.00 0.00 0.00 100 1014.7
20260502051922 11 155 16.1 22.5 0.00 0.00 0.00 100 1014.7
20260502050922 11 155 17.7 24.1 0.00 0.00 0.00 100 1014.7
20260502045922 10 156 14.5 24.1 0.00 0.00 0.00 100 1014.8
20260502044922 11 158 16.1 22.5 0.00 0.00 0.00 100 1014.8
20260502043922 11 157 12.9 20.9 0.00 0.00 0.00 100 1014.9
20260502042922 11 164 9.7 17.7 0.00 0.00 0.00 100 1014.9
20260502041922 11 159 14.5 22.5 0.00 0.00 0.00 100 1015.1
20260502040921 11 165 8.0 17.7 0.00 0.00 0.00 100 1015.1
20260502035921 11 159 12.9 22.5 0.00 0.00 0.00 100 1015.3
20260502034921 11 157 14.5 20.9 0.00 0.00 0.00 100 1015.3
20260502033921 11 156 16.1 27.4 0.00 0.00 0.00 100 1015.4
20260502032921 11 158 17.7 25.7 0.00 0.00 0.00 100 1015.5
20260502031922 11 157 14.5 20.9 0.00 0.00 0.00 100 1015.6
20260502030921 11 173 6.4 14.5 0.00 0.00 0.00 100 1015.6
20260502025921 11 171 6.4 12.9 0.00 0.00 0.00 100 1015.7
20260502024921 11 166 6.4 12.9 0.00 0.00 0.00 100 1015.8
20260502023921 11 158 11.3 17.7 0.00 0.00 0.00 100 1015.8
20260502022921 11 159 11.3 17.7 0.00 0.00 0.00 100 1015.9
20260502021921 11 157 11.3 19.3 0.00 0.00 0.00 100 1016.0
20260502020921 11 159 9.7 16.1 0.00 0.00 0.00 100 1016.1
20260502015921 11 170 6.4 12.9 0.00 0.00 0.00 100 1016.3
20260502014921 11 167 6.4 12.9 0.00 0.00 0.00 100 1016.4
20260502013921 11 172 6.4 11.3 0.00 0.00 0.00 100 1016.6
20260502012921 11 170 6.4 11.3 0.00 0.00 0.00 100 1016.7
20260502011921 11 179 8.0 19.3 0.00 0.00 0.00 100 1016.8
20260502010921 11 171 8.0 14.5 0.00 0.00 0.00 100 1016.9
20260502005921 11 171 4.8 11.3 0.00 0.00 0.00 100 1017.0
20260502004921 11 175 6.4 12.9 0.00 0.00 0.00 100 1017.1
20260502003925 11 172 6.4 16.1 0.00 0.00 0.00 100 1017.2
20260502002925 11 164 9.7 19.3 0.00 0.00 0.00 100 1017.2
20260502001925 11 166 9.7 20.9 0.00 0.00 0.00 100 1017.2
20260502000913 11 162 8.0 17.7 0.00 0.00 0.00 100 1017.3
20260501235913 11 163 8.0 16.1 0.00 0.00 0.00 100 1017.3
20260501234913 11 178 4.8 8.0 0.00 0.00 0.00 100 1017.4
20260501233913 11 166 8.0 14.5 0.00 0.00 0.00 100 1017.5